Location: Shandelee
(41.8790°N, 74.8713°W)
Time: 04:19:08
(UTC+00:00)

Cosmos 1980 Rocket - Pass Details

Date: 29 October 2020
Orbit: 831 x 848 km, 71.0° (Epoch: 23 November)

Event Time Altitude Azimuth Distance (km) Brightness Sun altitude
Rises 22:34:11 0° 159° (SSE) 3,377 5.2 -7.5°
Reaches altitude 10° 22:37:20 10° 141° (SE) 2,445 4.3 -8.1°
Maximum altitude 22:41:02 18° 99° (E) 1,927 3.5 -8.8°
Drops below altitude 10° 22:44:44 10° 58° (ENE) 2,449 4.0 -9.5°
Enters shadow 22:45:02 - 56° (NE) 2,523 4.1 -9.5°
